Year,Month,Day,Hour,Minute,Value (Times are PST for temperature in C)
2007,08,11,00,00,13.70
2007,08,11,00,01,13.70
2007,08,11,00,02,13.70
2007,08,11,00,03,13.70
2007,08,11,00,04,13.60
2007,08,11,00,05,13.60
2007,08,11,00,06,13.60
2007,08,11,00,07,13.60
2007,08,11,00,08,13.60
2007,08,11,00,09,13.50
2007,08,11,00,10,13.50
2007,08,11,00,11,13.50
2007,08,11,00,12,13.50
2007,08,11,00,13,13.40
2007,08,11,00,14,13.40
2007,08,11,00,15,13.40
2007,08,11,00,16,13.30
2007,08,11,00,17,13.30
2007,08,11,00,18,13.30
2007,08,11,00,19,13.30
2007,08,11,00,20,13.30
2007,08,11,00,21,13.30
2007,08,11,00,22,13.30
2007,08,11,00,23,13.30
2007,08,11,00,24,13.30
2007,08,11,00,25,13.20
2007,08,11,00,26,13.20
2007,08,11,00,27,13.20
2007,08,11,00,28,13.20
2007,08,11,00,29,13.20
2007,08,11,00,30,13.20
2007,08,11,00,31,13.20
2007,08,11,00,32,13.20
2007,08,11,00,33,13.20
2007,08,11,00,34,13.10
2007,08,11,00,35,13.10
2007,08,11,00,36,13.10
2007,08,11,00,37,13.10
2007,08,11,00,38,13.10
2007,08,11,00,39,13.10
2007,08,11,00,40,13.10
2007,08,11,00,41,13.10
2007,08,11,00,42,13.10
2007,08,11,00,43,13.10
2007,08,11,00,44,13.10
2007,08,11,00,45,13.10
2007,08,11,00,46,13.00
2007,08,11,00,47,13.00
2007,08,11,00,48,13.00
2007,08,11,00,49,13.00
2007,08,11,00,50,13.00
2007,08,11,00,51,13.00
2007,08,11,00,52,13.00
2007,08,11,00,53,13.00
2007,08,11,00,54,13.00
2007,08,11,00,55,13.00
2007,08,11,00,56,12.90
2007,08,11,00,57,12.90
2007,08,11,00,58,12.90
2007,08,11,00,59,12.90
2007,08,11,01,00,12.80
2007,08,11,01,01,12.80
2007,08,11,01,02,12.80
2007,08,11,01,03,12.80
2007,08,11,01,04,12.80
2007,08,11,01,05,12.80
2007,08,11,01,06,12.80
2007,08,11,01,07,12.80
2007,08,11,01,08,12.70
2007,08,11,01,09,12.70
2007,08,11,01,10,12.70
2007,08,11,01,11,12.70
2007,08,11,01,12,12.60
2007,08,11,01,13,12.60
2007,08,11,01,14,12.60
2007,08,11,01,15,12.60
2007,08,11,01,16,12.60
2007,08,11,01,17,12.60
2007,08,11,01,18,12.50
2007,08,11,01,19,12.50
2007,08,11,01,20,12.50
2007,08,11,01,21,12.50
2007,08,11,01,22,12.50
2007,08,11,01,23,12.50
2007,08,11,01,24,12.50
2007,08,11,01,25,12.50
2007,08,11,01,26,12.50
2007,08,11,01,27,12.50
2007,08,11,01,28,12.40
2007,08,11,01,29,12.40
2007,08,11,01,30,12.40
2007,08,11,01,31,12.40
2007,08,11,01,32,12.30
2007,08,11,01,33,12.30
2007,08,11,01,34,12.30
2007,08,11,01,35,12.30
2007,08,11,01,36,12.30
2007,08,11,01,37,12.30
2007,08,11,01,38,12.30
2007,08,11,01,39,12.30
2007,08,11,01,40,12.30
2007,08,11,01,41,12.30
2007,08,11,01,42,12.30
2007,08,11,01,43,12.30
2007,08,11,01,44,12.30
2007,08,11,01,45,12.30
2007,08,11,01,46,12.30
2007,08,11,01,47,12.30
2007,08,11,01,48,12.30
2007,08,11,01,49,12.30
2007,08,11,01,50,12.30
2007,08,11,01,51,12.30
2007,08,11,01,52,12.30
2007,08,11,01,53,12.30
2007,08,11,01,54,12.30
2007,08,11,01,55,12.30
2007,08,11,01,56,12.30
2007,08,11,01,57,12.30
2007,08,11,01,58,12.30
2007,08,11,01,59,12.30
2007,08,11,02,00,12.20
2007,08,11,02,01,12.20
2007,08,11,02,02,12.20
2007,08,11,02,03,12.20
2007,08,11,02,04,12.20
2007,08,11,02,05,12.20
2007,08,11,02,06,12.20
2007,08,11,02,07,12.20
2007,08,11,02,08,12.20
2007,08,11,02,09,12.20
2007,08,11,02,10,12.20
2007,08,11,02,11,12.20
2007,08,11,02,12,12.20
2007,08,11,02,13,12.10
2007,08,11,02,14,12.10
2007,08,11,02,15,12.10
2007,08,11,02,16,12.10
2007,08,11,02,17,12.10
2007,08,11,02,18,12.10
2007,08,11,02,19,12.10
2007,08,11,02,20,12.10
2007,08,11,02,21,12.00
2007,08,11,02,22,12.00
2007,08,11,02,23,12.00
2007,08,11,02,24,11.90
2007,08,11,02,25,11.90
2007,08,11,02,26,11.90
2007,08,11,02,27,11.90
2007,08,11,02,28,11.90
2007,08,11,02,29,11.90
2007,08,11,02,30,11.80
2007,08,11,02,31,11.80
2007,08,11,02,32,11.80
2007,08,11,02,33,11.80
2007,08,11,02,34,11.80
2007,08,11,02,35,11.80
2007,08,11,02,36,11.80
2007,08,11,02,37,11.80
2007,08,11,02,38,11.80
2007,08,11,02,39,11.80
2007,08,11,02,40,11.80
2007,08,11,02,41,11.80
2007,08,11,02,42,11.80
2007,08,11,02,43,11.80
2007,08,11,02,44,11.70
2007,08,11,02,45,11.70
2007,08,11,02,46,11.70
2007,08,11,02,47,11.70
2007,08,11,02,48,11.70
2007,08,11,02,49,11.70
2007,08,11,02,50,11.70
2007,08,11,02,51,11.70
2007,08,11,02,52,11.70
2007,08,11,02,53,11.70
2007,08,11,02,54,11.70
2007,08,11,02,55,11.70
2007,08,11,02,56,11.70
2007,08,11,02,57,11.60
2007,08,11,02,58,11.60
2007,08,11,02,59,11.60
2007,08,11,03,00,11.60
2007,08,11,03,01,11.60
2007,08,11,03,02,11.60
2007,08,11,03,03,11.60
2007,08,11,03,04,11.60
2007,08,11,03,05,11.60
2007,08,11,03,06,11.60
2007,08,11,03,07,11.60
2007,08,11,03,08,11.60
2007,08,11,03,09,11.60
2007,08,11,03,10,11.60
2007,08,11,03,11,11.40
2007,08,11,03,12,11.40
2007,08,11,03,13,11.40
2007,08,11,03,14,11.40
2007,08,11,03,15,11.40
2007,08,11,03,16,11.40
2007,08,11,03,17,11.40
2007,08,11,03,18,11.40
2007,08,11,03,19,11.40
2007,08,11,03,20,11.40
2007,08,11,03,21,11.40
2007,08,11,03,22,11.40
2007,08,11,03,23,11.30
2007,08,11,03,24,11.30
2007,08,11,03,25,11.30
2007,08,11,03,26,11.30
2007,08,11,03,27,11.20
2007,08,11,03,28,11.20
2007,08,11,03,29,11.20
2007,08,11,03,30,11.10
2007,08,11,03,31,11.10
2007,08,11,03,32,11.10
2007,08,11,03,33,11.10
2007,08,11,03,34,11.10
2007,08,11,03,35,11.10
2007,08,11,03,36,11.10
2007,08,11,03,37,11.10
2007,08,11,03,38,11.10
2007,08,11,03,39,11.10
2007,08,11,03,40,11.10
2007,08,11,03,41,11.10
2007,08,11,03,42,11.10
2007,08,11,03,43,11.10
2007,08,11,03,44,11.10
2007,08,11,03,45,11.10
2007,08,11,03,46,11.10
2007,08,11,03,47,11.10
2007,08,11,03,48,11.10
2007,08,11,03,49,11.10
2007,08,11,03,50,11.10
2007,08,11,03,51,11.10
2007,08,11,03,52,11.10
2007,08,11,03,53,11.10
2007,08,11,03,54,11.00
2007,08,11,03,55,10.90
2007,08,11,03,56,10.90
2007,08,11,03,57,10.90
2007,08,11,03,58,10.90
2007,08,11,03,59,10.90
2007,08,11,04,00,10.90
2007,08,11,04,01,10.90
2007,08,11,04,02,10.90
2007,08,11,04,03,10.90
2007,08,11,04,04,10.90
2007,08,11,04,05,10.90
2007,08,11,04,06,10.90
2007,08,11,04,07,10.90
2007,08,11,04,08,10.90
2007,08,11,04,09,10.80
2007,08,11,04,10,10.80
2007,08,11,04,11,10.80
2007,08,11,04,12,10.80
2007,08,11,04,13,10.80
2007,08,11,04,14,10.80
2007,08,11,04,15,10.80
2007,08,11,04,16,10.70
2007,08,11,04,17,10.70
2007,08,11,04,18,10.70
2007,08,11,04,19,10.70
2007,08,11,04,20,10.70
2007,08,11,04,21,10.70
2007,08,11,04,22,10.70
2007,08,11,04,23,10.70
2007,08,11,04,24,10.70
2007,08,11,04,25,10.70
2007,08,11,04,26,10.70
2007,08,11,04,27,10.70
2007,08,11,04,28,10.70
2007,08,11,04,29,10.70
2007,08,11,04,30,10.70
2007,08,11,04,31,10.70
2007,08,11,04,32,10.60
2007,08,11,04,33,10.60
2007,08,11,04,34,10.60
2007,08,11,04,35,10.60
2007,08,11,04,36,10.60
2007,08,11,04,37,10.60
2007,08,11,04,38,10.60
2007,08,11,04,39,10.60
2007,08,11,04,40,10.60
2007,08,11,04,41,10.60
2007,08,11,04,42,10.60
2007,08,11,04,43,10.60
2007,08,11,04,44,10.60
2007,08,11,04,45,10.60
2007,08,11,04,46,10.60
2007,08,11,04,47,10.60
2007,08,11,04,48,10.60
2007,08,11,04,49,10.60
2007,08,11,04,50,10.60
2007,08,11,04,51,10.60
2007,08,11,04,52,10.60
2007,08,11,04,53,10.60
2007,08,11,04,54,10.60
2007,08,11,04,55,10.50
2007,08,11,04,56,10.40
2007,08,11,04,57,10.40
2007,08,11,04,58,10.40
2007,08,11,04,59,10.40
2007,08,11,05,00,10.40
2007,08,11,05,01,10.40
2007,08,11,05,02,10.40
2007,08,11,05,03,10.40
2007,08,11,05,04,10.40
2007,08,11,05,05,10.40
2007,08,11,05,06,10.40
2007,08,11,05,07,10.40
2007,08,11,05,08,10.40
2007,08,11,05,09,10.40
2007,08,11,05,10,10.40
2007,08,11,05,11,10.40
2007,08,11,05,12,10.30
2007,08,11,05,13,10.30
2007,08,11,05,14,10.30
2007,08,11,05,15,10.30
2007,08,11,05,16,10.30
2007,08,11,05,17,10.30
2007,08,11,05,18,10.30
2007,08,11,05,19,10.30
2007,08,11,05,20,10.30
2007,08,11,05,21,10.20
2007,08,11,05,22,10.20
2007,08,11,05,23,10.20
2007,08,11,05,24,10.20
2007,08,11,05,25,10.20
2007,08,11,05,26,10.20
2007,08,11,05,27,10.10
2007,08,11,05,28,10.10
2007,08,11,05,29,10.10
2007,08,11,05,30,10.10
2007,08,11,05,31,10.10
2007,08,11,05,32,10.20
2007,08,11,05,33,10.20
2007,08,11,05,34,10.20
2007,08,11,05,35,10.20
2007,08,11,05,36,10.10
2007,08,11,05,37,10.10
2007,08,11,05,38,10.10
2007,08,11,05,39,10.10
2007,08,11,05,40,10.10
2007,08,11,05,41,10.10
2007,08,11,05,42,10.10
2007,08,11,05,43,10.10
2007,08,11,05,44,10.10
2007,08,11,05,45,10.10
2007,08,11,05,46,10.10
2007,08,11,05,47,10.10
2007,08,11,05,48,10.10
2007,08,11,05,49,10.10
2007,08,11,05,50,10.10
2007,08,11,05,51,10.10
2007,08,11,05,52,10.10
2007,08,11,05,53,10.10
2007,08,11,05,54,10.10
2007,08,11,05,55,10.10
2007,08,11,05,56,10.10
2007,08,11,05,57,10.10
2007,08,11,05,58,10.10
2007,08,11,05,59,10.10
2007,08,11,06,00,10.10
2007,08,11,06,01,10.10
2007,08,11,06,02,10.10
2007,08,11,06,03,10.10
2007,08,11,06,04,10.10
2007,08,11,06,05,10.10
2007,08,11,06,06,10.10
2007,08,11,06,07,10.10
2007,08,11,06,08,10.10
2007,08,11,06,09,10.10
2007,08,11,06,10,10.10
2007,08,11,06,11,10.10
2007,08,11,06,12,10.10
2007,08,11,06,13,10.10
2007,08,11,06,14,10.10
2007,08,11,06,15,10.10
2007,08,11,06,16,10.10
2007,08,11,06,17,10.10
2007,08,11,06,18,10.10
2007,08,11,06,19,10.10
2007,08,11,06,20,10.10
2007,08,11,06,21,10.10
2007,08,11,06,22,10.10
2007,08,11,06,23,10.10
2007,08,11,06,24,10.10
2007,08,11,06,25,10.10
2007,08,11,06,26,10.10
2007,08,11,06,27,10.10
2007,08,11,06,28,10.10
2007,08,11,06,29,10.10
2007,08,11,06,30,10.10
2007,08,11,06,31,10.10
2007,08,11,06,32,10.10
2007,08,11,06,33,10.10
2007,08,11,06,34,10.10
2007,08,11,06,35,10.10
2007,08,11,06,36,10.10
2007,08,11,06,37,10.10
2007,08,11,06,38,10.10
2007,08,11,06,39,10.20
2007,08,11,06,40,10.20
2007,08,11,06,41,10.20
2007,08,11,06,42,10.20
2007,08,11,06,43,10.30
2007,08,11,06,44,10.30
2007,08,11,06,45,10.30
2007,08,11,06,46,10.40
2007,08,11,06,47,10.40
2007,08,11,06,48,10.40
2007,08,11,06,49,10.40
2007,08,11,06,50,10.40
2007,08,11,06,51,10.40
2007,08,11,06,52,10.40
2007,08,11,06,53,10.40
2007,08,11,06,54,10.50
2007,08,11,06,55,10.60
2007,08,11,06,56,10.60
2007,08,11,06,57,10.60
2007,08,11,06,58,10.60
2007,08,11,06,59,10.60
2007,08,11,07,00,10.60
2007,08,11,07,01,10.70
2007,08,11,07,02,10.70
2007,08,11,07,03,10.80
2007,08,11,07,04,10.80
2007,08,11,07,05,10.90
2007,08,11,07,06,10.90
2007,08,11,07,07,11.00
2007,08,11,07,08,11.10
2007,08,11,07,09,11.10
2007,08,11,07,10,11.10
2007,08,11,07,11,11.20
2007,08,11,07,12,11.20
2007,08,11,07,13,11.30
2007,08,11,07,14,11.30
2007,08,11,07,15,11.40
2007,08,11,07,16,11.40
2007,08,11,07,17,11.40
2007,08,11,07,18,11.50
2007,08,11,07,19,11.60
2007,08,11,07,20,11.60
2007,08,11,07,21,11.60
2007,08,11,07,22,11.70
2007,08,11,07,23,11.70
2007,08,11,07,24,11.80
2007,08,11,07,25,11.80
2007,08,11,07,26,11.80
2007,08,11,07,27,11.90
2007,08,11,07,28,11.90
2007,08,11,07,29,12.00
2007,08,11,07,30,12.00
2007,08,11,07,31,12.10
2007,08,11,07,32,12.20
2007,08,11,07,33,12.30
2007,08,11,07,34,12.30
2007,08,11,07,35,12.40
2007,08,11,07,36,12.40
2007,08,11,07,37,12.40
2007,08,11,07,38,12.50
2007,08,11,07,39,12.70
2007,08,11,07,40,12.80
2007,08,11,07,41,12.80
2007,08,11,07,42,12.90
2007,08,11,07,43,12.90
2007,08,11,07,44,13.00
2007,08,11,07,45,13.00
2007,08,11,07,46,13.10
2007,08,11,07,47,13.20
2007,08,11,07,48,13.30
2007,08,11,07,49,13.30
2007,08,11,07,50,13.30
2007,08,11,07,51,13.40
2007,08,11,07,52,13.40
2007,08,11,07,53,13.40
2007,08,11,07,54,13.50
2007,08,11,07,55,13.50
2007,08,11,07,56,13.50
2007,08,11,07,57,13.60
2007,08,11,07,58,13.60
2007,08,11,07,59,13.60
2007,08,11,08,00,13.60
2007,08,11,08,01,13.60
2007,08,11,08,02,13.70
2007,08,11,08,03,13.70
2007,08,11,08,04,13.80
2007,08,11,08,05,13.90
2007,08,11,08,06,14.00
2007,08,11,08,07,14.10
2007,08,11,08,08,14.30
2007,08,11,08,09,14.40
2007,08,11,08,10,14.50
2007,08,11,08,11,14.70
2007,08,11,08,12,14.80
2007,08,11,08,13,14.90
2007,08,11,08,14,15.00
2007,08,11,08,15,15.00
2007,08,11,08,16,15.00
2007,08,11,08,17,15.00
2007,08,11,08,18,14.80
2007,08,11,08,19,14.80
2007,08,11,08,20,14.80
2007,08,11,08,21,14.70
2007,08,11,08,22,14.70
2007,08,11,08,23,14.70
2007,08,11,08,24,14.80
2007,08,11,08,25,14.80
2007,08,11,08,26,14.90
2007,08,11,08,27,14.90
2007,08,11,08,28,15.00
2007,08,11,08,29,15.00
2007,08,11,08,30,15.00
2007,08,11,08,31,15.10
2007,08,11,08,32,15.10
2007,08,11,08,33,15.20
2007,08,11,08,34,15.20
2007,08,11,08,35,15.30
2007,08,11,08,36,15.30
2007,08,11,08,37,15.30
2007,08,11,08,38,15.30
2007,08,11,08,39,15.40
2007,08,11,08,40,15.40
2007,08,11,08,41,15.40
2007,08,11,08,42,15.40
2007,08,11,08,43,15.50
2007,08,11,08,44,15.50
2007,08,11,08,45,15.50
2007,08,11,08,46,15.60
2007,08,11,08,47,15.80
2007,08,11,08,48,15.80
2007,08,11,08,49,15.90
2007,08,11,08,50,15.90
2007,08,11,08,51,15.90
2007,08,11,08,52,15.90
2007,08,11,08,53,15.90
2007,08,11,08,54,16.10
2007,08,11,08,55,16.10
2007,08,11,08,56,16.10
2007,08,11,08,57,16.20
2007,08,11,08,58,16.20
2007,08,11,08,59,16.20
2007,08,11,09,00,16.30
2007,08,11,09,01,16.30
2007,08,11,09,02,16.40
2007,08,11,09,03,16.40
2007,08,11,09,04,16.30
2007,08,11,09,05,16.20
2007,08,11,09,06,16.10
2007,08,11,09,07,16.10
2007,08,11,09,08,16.20
2007,08,11,09,09,16.30
2007,08,11,09,10,16.40
2007,08,11,09,11,16.40
2007,08,11,09,12,16.40
2007,08,11,09,13,16.40
2007,08,11,09,14,16.40
2007,08,11,09,15,16.40
2007,08,11,09,16,16.30
2007,08,11,09,17,16.20
2007,08,11,09,18,16.20
2007,08,11,09,19,16.20
2007,08,11,09,20,16.20
2007,08,11,09,21,16.30
2007,08,11,09,22,16.40
2007,08,11,09,23,16.60
2007,08,11,09,24,16.70
2007,08,11,09,25,16.70
2007,08,11,09,26,16.70
2007,08,11,09,27,16.60
2007,08,11,09,28,16.40
2007,08,11,09,29,16.40
2007,08,11,09,30,16.50
2007,08,11,09,31,16.60
2007,08,11,09,32,16.60
2007,08,11,09,33,16.70
2007,08,11,09,34,16.70
2007,08,11,09,35,16.70
2007,08,11,09,36,16.80
2007,08,11,09,37,16.90
2007,08,11,09,38,17.00
2007,08,11,09,39,17.20
2007,08,11,09,40,17.40
2007,08,11,09,41,17.50
2007,08,11,09,42,17.60
2007,08,11,09,43,17.60
2007,08,11,09,44,17.70
2007,08,11,09,45,17.80
2007,08,11,09,46,17.80
2007,08,11,09,47,17.90
2007,08,11,09,48,17.90
2007,08,11,09,49,17.90
2007,08,11,09,50,17.90
2007,08,11,09,51,17.90
2007,08,11,09,52,17.80
2007,08,11,09,53,17.80
2007,08,11,09,54,17.80
2007,08,11,09,55,17.70
2007,08,11,09,56,17.70
2007,08,11,09,57,17.70
2007,08,11,09,58,17.70
2007,08,11,09,59,17.70
2007,08,11,10,00,17.70
2007,08,11,10,01,17.60
2007,08,11,10,02,17.60
2007,08,11,10,03,17.60
2007,08,11,10,04,17.60
2007,08,11,10,05,17.60
2007,08,11,10,06,17.60
2007,08,11,10,07,17.70
2007,08,11,10,08,17.70
2007,08,11,10,09,17.70
2007,08,11,10,10,17.70
2007,08,11,10,11,17.60
2007,08,11,10,12,17.50
2007,08,11,10,13,17.40
2007,08,11,10,14,17.50
2007,08,11,10,15,17.60
2007,08,11,10,16,17.60
2007,08,11,10,17,17.70
2007,08,11,10,18,17.70
2007,08,11,10,19,17.70
2007,08,11,10,20,17.70
2007,08,11,10,21,17.80
2007,08,11,10,22,17.90
2007,08,11,10,23,18.10
2007,08,11,10,24,18.10
2007,08,11,10,25,18.10
2007,08,11,10,26,18.10
2007,08,11,10,27,17.90
2007,08,11,10,28,17.90
2007,08,11,10,29,17.80
2007,08,11,10,30,17.70
2007,08,11,10,31,17.70
2007,08,11,10,32,17.90
2007,08,11,10,33,17.90
2007,08,11,10,34,17.90
2007,08,11,10,35,17.80
2007,08,11,10,36,17.70
2007,08,11,10,37,17.70
2007,08,11,10,38,17.60
2007,08,11,10,39,17.60
2007,08,11,10,40,17.70
2007,08,11,10,41,17.70
2007,08,11,10,42,17.70
2007,08,11,10,43,17.90
2007,08,11,10,44,17.90
2007,08,11,10,45,17.90
2007,08,11,10,46,17.90
2007,08,11,10,47,17.80
2007,08,11,10,48,17.70
2007,08,11,10,49,17.70
2007,08,11,10,50,17.80
2007,08,11,10,51,17.80
2007,08,11,10,52,17.80
2007,08,11,10,53,17.70
2007,08,11,10,54,17.70
2007,08,11,10,55,17.60
2007,08,11,10,56,17.50
2007,08,11,10,57,17.40
2007,08,11,10,58,17.40
2007,08,11,10,59,17.40
2007,08,11,11,00,17.40
2007,08,11,11,01,17.40
2007,08,11,11,02,17.60
2007,08,11,11,03,17.70
2007,08,11,11,04,17.70
2007,08,11,11,05,17.70
2007,08,11,11,06,17.70
2007,08,11,11,07,17.70
2007,08,11,11,08,17.70
2007,08,11,11,09,17.70
2007,08,11,11,10,17.70
2007,08,11,11,11,17.80
2007,08,11,11,12,17.70
2007,08,11,11,13,17.70
2007,08,11,11,14,17.70
2007,08,11,11,15,17.60
2007,08,11,11,16,17.60
2007,08,11,11,17,17.60
2007,08,11,11,18,17.60
2007,08,11,11,19,17.70
2007,08,11,11,20,17.70
2007,08,11,11,21,17.60
2007,08,11,11,22,17.60
2007,08,11,11,23,17.60
2007,08,11,11,24,17.60
2007,08,11,11,25,17.60
2007,08,11,11,26,17.50
2007,08,11,11,27,17.40
2007,08,11,11,28,17.50
2007,08,11,11,29,17.50
2007,08,11,11,30,17.60
2007,08,11,11,31,17.50
2007,08,11,11,32,17.60
2007,08,11,11,33,17.50
2007,08,11,11,34,17.40
2007,08,11,11,35,17.30
2007,08,11,11,36,17.30
2007,08,11,11,37,17.30
2007,08,11,11,38,17.30
2007,08,11,11,39,17.40
2007,08,11,11,40,17.40
2007,08,11,11,41,17.40
2007,08,11,11,42,17.50
2007,08,11,11,43,17.50
2007,08,11,11,44,17.50
2007,08,11,11,45,17.50
2007,08,11,11,46,17.50
2007,08,11,11,47,17.50
2007,08,11,11,48,17.50
2007,08,11,11,49,17.60
2007,08,11,11,50,17.60
2007,08,11,11,51,17.40
2007,08,11,11,52,17.40
2007,08,11,11,53,17.30
2007,08,11,11,54,17.30
2007,08,11,11,55,17.30
2007,08,11,11,56,17.30
2007,08,11,11,57,17.30
2007,08,11,11,58,17.30
2007,08,11,11,59,17.40
2007,08,11,12,00,17.40
2007,08,11,12,01,17.40
2007,08,11,12,02,17.40
2007,08,11,12,03,17.40
2007,08,11,12,04,17.40
2007,08,11,12,05,17.50
2007,08,11,12,06,17.50
2007,08,11,12,07,17.60
2007,08,11,12,08,17.70
2007,08,11,12,09,17.70
2007,08,11,12,10,17.70
2007,08,11,12,11,17.70
2007,08,11,12,12,17.60
2007,08,11,12,13,17.50
2007,08,11,12,14,17.50
2007,08,11,12,15,17.50
2007,08,11,12,16,17.50
2007,08,11,12,17,17.60
2007,08,11,12,18,17.60
2007,08,11,12,19,17.60
2007,08,11,12,20,17.70
2007,08,11,12,21,17.70
2007,08,11,12,22,17.70
2007,08,11,12,23,17.70
2007,08,11,12,24,17.70
2007,08,11,12,25,17.80
2007,08,11,12,26,17.80
2007,08,11,12,27,17.90
2007,08,11,12,28,17.90
2007,08,11,12,29,17.90
2007,08,11,12,30,17.90
2007,08,11,12,31,17.90
2007,08,11,12,32,17.80
2007,08,11,12,33,17.70
2007,08,11,12,34,17.70
2007,08,11,12,35,17.60
2007,08,11,12,36,17.60
2007,08,11,12,37,17.60
2007,08,11,12,38,17.60
2007,08,11,12,39,17.60
2007,08,11,12,40,17.70
2007,08,11,12,41,17.80
2007,08,11,12,42,17.80
2007,08,11,12,43,18.00
2007,08,11,12,44,18.10
2007,08,11,12,45,18.30
2007,08,11,12,46,18.30
2007,08,11,12,47,18.40
2007,08,11,12,48,18.40
2007,08,11,12,49,18.40
2007,08,11,12,50,18.50
2007,08,11,12,51,18.60
2007,08,11,12,52,18.50
2007,08,11,12,53,18.50
2007,08,11,12,54,18.40
2007,08,11,12,55,18.40
2007,08,11,12,56,18.50
2007,08,11,12,57,18.50
2007,08,11,12,58,18.60
2007,08,11,12,59,18.70
2007,08,11,13,00,18.80
2007,08,11,13,01,18.80
2007,08,11,13,02,18.90
2007,08,11,13,03,18.80
2007,08,11,13,04,18.70
2007,08,11,13,05,18.60
2007,08,11,13,06,18.50
2007,08,11,13,07,18.40
2007,08,11,13,08,18.50
2007,08,11,13,09,18.50
2007,08,11,13,10,18.50
2007,08,11,13,11,18.50
2007,08,11,13,12,18.60
2007,08,11,13,13,18.60
2007,08,11,13,14,18.70
2007,08,11,13,15,18.80
2007,08,11,13,16,18.90
2007,08,11,13,17,18.80
2007,08,11,13,18,18.80
2007,08,11,13,19,18.80
2007,08,11,13,20,18.80
2007,08,11,13,21,18.80
2007,08,11,13,22,18.80
2007,08,11,13,23,18.80
2007,08,11,13,24,18.80
2007,08,11,13,25,18.90
2007,08,11,13,26,18.90
2007,08,11,13,27,18.90
2007,08,11,13,28,18.90
2007,08,11,13,29,19.10
2007,08,11,13,30,19.10
2007,08,11,13,31,19.20
2007,08,11,13,32,19.30
2007,08,11,13,33,19.30
2007,08,11,13,34,19.30
2007,08,11,13,35,19.30
2007,08,11,13,36,19.30
2007,08,11,13,37,19.30
2007,08,11,13,38,19.30
2007,08,11,13,39,19.30
2007,08,11,13,40,19.30
2007,08,11,13,41,19.40
2007,08,11,13,42,19.50
2007,08,11,13,43,19.50
2007,08,11,13,44,19.60
2007,08,11,13,45,19.60
2007,08,11,13,46,19.70
2007,08,11,13,47,19.80
2007,08,11,13,48,19.80
2007,08,11,13,49,19.80
2007,08,11,13,50,19.90
2007,08,11,13,51,19.90
2007,08,11,13,52,20.00
2007,08,11,13,53,20.10
2007,08,11,13,54,20.20
2007,08,11,13,55,20.20
2007,08,11,13,56,20.20
2007,08,11,13,57,20.20
2007,08,11,13,58,20.20
2007,08,11,13,59,20.30
2007,08,11,14,00,20.40
2007,08,11,14,01,20.50
2007,08,11,14,02,20.60
2007,08,11,14,03,20.60
2007,08,11,14,04,20.60
2007,08,11,14,05,20.70
2007,08,11,14,06,20.70
2007,08,11,14,07,20.80
2007,08,11,14,08,20.70
2007,08,11,14,09,20.50
2007,08,11,14,10,20.50
2007,08,11,14,11,20.60
2007,08,11,14,12,20.70
2007,08,11,14,13,20.70
2007,08,11,14,14,20.70
2007,08,11,14,15,20.80
2007,08,11,14,16,20.90
2007,08,11,14,17,20.80
2007,08,11,14,18,20.80
2007,08,11,14,19,20.80
2007,08,11,14,20,20.70
2007,08,11,14,21,20.60
2007,08,11,14,22,20.60
2007,08,11,14,23,20.70
2007,08,11,14,24,20.70
2007,08,11,14,25,20.60
2007,08,11,14,26,20.50
2007,08,11,14,27,20.30
2007,08,11,14,28,20.20
2007,08,11,14,29,20.10
2007,08,11,14,30,19.90
2007,08,11,14,31,19.90
2007,08,11,14,32,19.90
2007,08,11,14,33,19.80
2007,08,11,14,34,19.70
2007,08,11,14,35,19.60
2007,08,11,14,36,19.50
2007,08,11,14,37,19.40
2007,08,11,14,38,19.40
2007,08,11,14,39,19.30
2007,08,11,14,40,19.30
2007,08,11,14,41,19.30
2007,08,11,14,42,19.20
2007,08,11,14,43,19.20
2007,08,11,14,44,19.20
2007,08,11,14,45,19.20
2007,08,11,14,46,19.20
2007,08,11,14,47,19.10
2007,08,11,14,48,19.10
2007,08,11,14,49,19.20
2007,08,11,14,50,19.20
2007,08,11,14,51,19.20
2007,08,11,14,52,19.20
2007,08,11,14,53,19.20
2007,08,11,14,54,19.30
2007,08,11,14,55,19.30
2007,08,11,14,56,19.30
2007,08,11,14,57,19.30
2007,08,11,14,58,19.40
2007,08,11,14,59,19.50
2007,08,11,15,00,19.60
2007,08,11,15,01,19.70
2007,08,11,15,02,19.80
2007,08,11,15,03,19.90
2007,08,11,15,04,20.10
2007,08,11,15,05,20.10
2007,08,11,15,06,20.20
2007,08,11,15,07,20.30
2007,08,11,15,08,20.30
2007,08,11,15,09,20.40
2007,08,11,15,10,20.40
2007,08,11,15,11,20.40
2007,08,11,15,12,20.50
2007,08,11,15,13,20.50
2007,08,11,15,14,20.50
2007,08,11,15,15,20.50
2007,08,11,15,16,20.50
2007,08,11,15,17,20.50
2007,08,11,15,18,20.50
2007,08,11,15,19,20.50
2007,08,11,15,20,20.50
2007,08,11,15,21,20.50
2007,08,11,15,22,20.50
2007,08,11,15,23,20.50
2007,08,11,15,24,20.60
2007,08,11,15,25,20.60
2007,08,11,15,26,20.70
2007,08,11,15,27,20.70
2007,08,11,15,28,20.70
2007,08,11,15,29,20.70
2007,08,11,15,30,20.70
2007,08,11,15,31,20.70
2007,08,11,15,32,20.70
2007,08,11,15,33,20.70
2007,08,11,15,34,20.70
2007,08,11,15,35,20.80
2007,08,11,15,36,20.80
2007,08,11,15,37,20.80
2007,08,11,15,38,20.80
2007,08,11,15,39,20.80
2007,08,11,15,40,20.70
2007,08,11,15,41,20.70
2007,08,11,15,42,20.70
2007,08,11,15,43,20.70
2007,08,11,15,44,20.60
2007,08,11,15,45,20.60
2007,08,11,15,46,20.50
2007,08,11,15,47,20.50
2007,08,11,15,48,20.40
2007,08,11,15,49,20.40
2007,08,11,15,50,20.30
2007,08,11,15,51,20.30
2007,08,11,15,52,20.30
2007,08,11,15,53,20.30
2007,08,11,15,54,20.30
2007,08,11,15,55,20.30
2007,08,11,15,56,20.30
2007,08,11,15,57,20.30
2007,08,11,15,58,20.30
2007,08,11,15,59,20.30
2007,08,11,16,00,20.30
2007,08,11,16,01,20.30
2007,08,11,16,02,20.30
2007,08,11,16,03,20.30
2007,08,11,16,04,20.30
2007,08,11,16,05,20.30
2007,08,11,16,06,20.30
2007,08,11,16,07,20.30
2007,08,11,16,08,20.30
2007,08,11,16,09,20.20
2007,08,11,16,10,20.30
2007,08,11,16,11,20.30
2007,08,11,16,12,20.30
2007,08,11,16,13,20.30
2007,08,11,16,14,20.30
2007,08,11,16,15,20.30
2007,08,11,16,16,20.30
2007,08,11,16,17,20.30
2007,08,11,16,18,20.30
2007,08,11,16,19,20.30
2007,08,11,16,20,20.30
2007,08,11,16,21,20.30
2007,08,11,16,22,20.30
2007,08,11,16,23,20.30
2007,08,11,16,24,20.30
2007,08,11,16,25,20.30
2007,08,11,16,26,20.30
2007,08,11,16,27,20.30
2007,08,11,16,28,20.30
2007,08,11,16,29,20.30
2007,08,11,16,30,20.30
2007,08,11,16,31,20.30
2007,08,11,16,32,20.30
2007,08,11,16,33,20.30
2007,08,11,16,34,20.30
2007,08,11,16,35,20.30
2007,08,11,16,36,20.30
2007,08,11,16,37,20.30
2007,08,11,16,38,20.30
2007,08,11,16,39,20.30
2007,08,11,16,40,20.30
2007,08,11,16,41,20.30
2007,08,11,16,42,20.30
2007,08,11,16,43,20.30
2007,08,11,16,44,20.30
2007,08,11,16,45,20.30
2007,08,11,16,46,20.30
2007,08,11,16,47,20.30
2007,08,11,16,48,20.30
2007,08,11,16,49,20.30
2007,08,11,16,50,20.20
2007,08,11,16,51,20.20
2007,08,11,16,52,20.20
2007,08,11,16,53,20.20
2007,08,11,16,54,20.10
2007,08,11,16,55,20.10
2007,08,11,16,56,20.00
2007,08,11,16,57,19.90
2007,08,11,16,58,19.90
2007,08,11,16,59,19.80
2007,08,11,17,00,19.80
2007,08,11,17,01,19.80
2007,08,11,17,02,19.80
2007,08,11,17,03,19.70
2007,08,11,17,04,19.60
2007,08,11,17,05,19.60
2007,08,11,17,06,19.50
2007,08,11,17,07,19.50
2007,08,11,17,08,19.50
2007,08,11,17,09,19.50
2007,08,11,17,10,19.40
2007,08,11,17,11,19.40
2007,08,11,17,12,19.40
2007,08,11,17,13,19.40
2007,08,11,17,14,19.40
2007,08,11,17,15,19.40
2007,08,11,17,16,19.30
2007,08,11,17,17,19.30
2007,08,11,17,18,19.30
2007,08,11,17,19,19.30